Regional Weather Roundup
Issued by NWS Bismarck, ND

Home | Current Version | Previous Version | Text Only | Print | Product List | Glossary On
Versions: 1 2 3 4 5 6 7 8 9 10 11 12 13 14 15 16 17 18 19 20 21 22 23 24 25 26 27 28 29 30 31 32 33 34 35 36 37 38 39 40 41 42 43 44 45 46 47 48 49 50
000
ASUS43 KBIS 202220
RWRBIS

NWR BROADCAST TEXT
NATIONAL WEATHER SERVICE BISMARCK ND
500 PM CDT WED AUG 20 2014

NOTE: "FAIR" INDICATES FEW OR NO CLOUDS BELOW 12,000 FEET WITH NO
SIGNIFICANT WEATHER AND/OR OBSTRUCTIONS TO VISIBILITY.


CITY           SKY/WX    TMP DP  RH WIND       PRES   REMARKS
WILLISTON      LGT RAIN  69  65  86 SW7       29.76R
MINOT          LGT RAIN  76  64  66 S8        29.73R
MINOT AFB      CLOUDY    78  64  63 S14       29.71R
BISMARCK       CLOUDY    75  71  87 E5        29.71F
DICKINSON      LGT RAIN  67  62  84 NE9       29.76R
GARRISON         N/A     77  67  71 CALM      29.73S
HETTINGER ARPT PTSUNNY   72  66  81 NW5       29.72R
JAMESTOWN      PTSUNNY   80  67  64 SE10      29.75S
BEACH            N/A     68  63  83 N9        29.79S
CARRINGTON     FAIR      79  68  69 SE12G18   29.76S
CROSBY         MOCLDY    70  70 100 S6        29.74S
HARVEY         FAIR      81  66  61 SE9       29.74S
HAZEN          LGT RAIN  68  66  94 NE3       29.74R
LINTON         FAIR      79  70  73 SE15G21   29.69S
MANDAN         LGT RAIN  73  70  88 N3        29.73R
RUGBY          CLOUDY    72  66  83 N14G21    29.75R THUNDER
STANLEY        LGT RAIN  68  64  88 NW7       29.75S
TIOGA          MOCLDY    72  66  83 CALM      29.80R
WATFORD CITY   FAIR      75  57  53 W12       29.74R
$$

CITY           SKY/WX    TMP DP  RH WIND       PRES   REMARKS
GRAND FORKS    MOSUNNY   83  67  58 S13G20    29.76F
GRAND FORKS AF MOSUNNY   83  68  61 SE12      29.78S
DEVILS LAKE    CLOUDY    82  64  54 SE14      29.75S
FARGO          PTSUNNY   83  66  56 SE10      29.77F
CANDO          FAIR      82  66  57 SE13G18   29.77S
CAVALIER       MOCLDY    82  68  61 S10       29.79R
GRAFTON        FAIR      82  68  61 SE14      29.77S
GWINNER        CLEAR     81  70  69 E10       29.77S
LANGDON        FAIR      81  64  57 S9        29.80R
ROLLA          FAIR      66  66 100 E3        29.77F
WALHALLA       FAIR      82  68  61 SE12      29.79R
$$

CITY           SKY/WX    TMP DP  RH WIND       PRES   REMARKS
ABERDEEN       CLOUDY    81  67  62 SE12      29.72F
MOBRIDGE       CLOUDY    81  70  69 SE14      29.66F
BUFFALO          N/A     80  56  43 NW24G33   29.68R
RAPID CITY     CLOUDY    80  61  52 N22       29.72S
GLASGOW        PTSUNNY   77  57  50 W6        29.76F
SIDNEY         CLOUDY    68  63  83 CALM      29.77R
WOLF POINT     CLOUDY    79  57  46 N8        29.74F
GLENDIVE       PTSUNNY   73  59  60 N6        29.78S
MILES CITY     PTSUNNY   82  51  34 N13       29.77S
BAKER          PTSUNNY   77  55  46 N12       29.79S
$$

CITY           SKY/WX    TMP DP  RH WIND       PRES   REMARKS
BILLINGS       MOSUNNY   81  45  28 SE6       29.83F
GREAT FALLS    CLOUDY    72  50  45 W8        29.82F
REGINA         PTSUNNY   73  63  68 NW8       29.73R
ESTEVAN        TSTM     N/A N/A N/A W23G29      N/A
$$



USA.gov is the U.S. government's official web portal to all federal, state and local government web resources and services.